SL-16 DEB, 29098

Orbit data source: Space-Track

SL-16 DEB, 29098 is space debris in LEO originally from a launch on Fri, 26 Mar 1993 UTC launched from the Tyuratam Missile And Space Complex (TTMTR). Debris objects in space refer to the collection of defunct objects orbiting the Earth. Examples of debris include non-operational satellites, rocket bodies, and fragments generated from explosions, collisions, or faulty payload assembly.

Loading next visibility...
Identifier
29098, 1993-016AM
Orbit
LEO
Country
Flag of CISCIS
Related business
Manufacturer
Unknown
Mission
Spacecraft
Bus & Motor
Unknown
Mass
Unknown
Launch date (UTC)
1993-03-26 (33 years ago)
Launch vehicle
Unknown
Launch site
Tyuratam Missile And Space Complex (TTMTR)
Object type
Payload
Rocket body
Debris
Shape & HBR
Unknown shape, 0.1 m
Radar Cross Section
Small (<0.1 m²)

Expand to show TLE details & history
Last TLE update: 1 day ago

TLE from 1 day ago
0 SL-16 DEB
1 29098U 93016AM  26034.55353190  .00001361  00000-0  67427-3 0  9993
2 29098  70.9254  89.0784 0079379  38.8984  31.4918 14.17411811651858
Epoch: 2026-02-03T13:17Z
TLE epoch observation values (Epoch: 2026-02-03T13:17:05.156Z)
Latitude
63.34661°
Longitude
159.32902°
Altitude
795.766 km
Speed
7.487 km/s
True Right ascension
08h 49m 19s
True Declination
63° 12' 33"
Sunlit
Object was in full shadow at epoch
Visualization orbit readout
Latitude
Unknown
Longitude
Unknown
Altitude
Unknown
Speed
Unknown
Apparent Right ascension
Unknown
Apparent Declination
Unknown
Sunlit
N/A
Visualization observer readout
Local Sidereal Time
21:39:44
Azimuth
Unknown
Elevation
Unknown
Doppler factor
Unknown
Orbital elements
Apogee altitude
889.283 km
Perigee altitude
774.815 km
Semi-major axis
7,210.186 km
Eccentricity
0.00794
Inclination
70.9254°
RAAN
89.0784°
Arg. of periapsis
38.8984°
True anomaly
31.97101°
Mean anomaly
31.4918°
Eccentric anomaly
31.731°
Mean motion
3.54506 °/min
Orbital period
101.55 mins
BSTAR
0.00067427
Loading maneuver chart data...
Computing Atmospheric mass density...
Loading historical data...
Loading historical data...
Loading historical data...
Loading historical data...
Loading historical data...
Loading historical data...
Loading historical data...

Documentation

Showing up to 5 results
|